Home > Weather > Casper > Past weeks

Flag for USA Weather for the Past 2 Weeks in Casper, Wyoming, USA

Now
42 °F

Clear.


Feels Like: 38 °F
Forecast: 40 / 74 °F
Wind: 7 mph from West

Location: Natrona County International Airport

Current Time: May 4, 2016 at 3:04:03 AM

Latest Report: May 4, 2016 at 1:53 AM


Visibility: 10 mi

Pressure: 30.14 "Hg (24.87 "Hg at 1569m altitude)

Humidity: 73%

Dew Point: 34 °F

Location of CasperLocation

Historic Weather in Casper — Graph

°F

Casper Temperature Yesterday

Maximum temperature yesterday: 68 °F (at 5:53 PM)
Minimum temperature yesterday: 34 °F (at 2:53 AM)
Average temperature yesterday: 51 °F

High & Low Weather Summary for the Past Weeks

 TemperatureHumidityPressure
High77 °F (Apr 22, 2:53 PM)100% (Apr 24, 2:04 PM)30.37 "Hg (Apr 24, 2:04 PM)
Low22 °F (Apr 27, 2:53 AM)11% (Apr 23, 2:53 PM)29.43 "Hg (Apr 23, 2:53 PM)
Average42 °F69%29.97 "Hg
* Reported Apr 19 1:53 AM — May 4 1:53 AM, Casper, Weather by CustomWeather, © 2016

Note: Actual official high and low records may vary slightly from our data, if they occured in-between our weather recording intervals... More about our weather records

Advertising

Casper Weather History for the Previous 24 Hours

Scroll right to see more
 ConditionsComfort  
Time TempWeatherWind HumidityBarometerVisibility
1:53 AM
Wed, May 4
42 °FClear.7 mph73%30.14 "Hg10 mi
12:53 AM42 °FClear.5 mph73%30.14 "Hg10 mi
11:53 PM
Tue, May 3
39 °FClear.6 mph82%30.15 "Hg10 mi
10:53 PM43 °FClear.5 mph74%30.14 "Hg10 mi
9:53 PM54 °FClear.6 mph47%30.11 "Hg10 mi
8:53 PM55 °FSunny.8 mph47%30.11 "Hg10 mi
7:53 PM58 °FSunny.8 mph47%30.12 "Hg10 mi
6:53 PM65 °FSunny.6 mph29%30.11 "Hg10 mi
5:53 PM68 °FSunny.3 mph25%30.11 "Hg10 mi
4:53 PM66 °FSunny.No wind26%30.12 "Hg10 mi
3:53 PM66 °FSunny.6 mph28%30.13 "Hg10 mi
2:53 PM65 °FSunny.6 mph28%30.14 "Hg10 mi
1:53 PM64 °FSunny.6 mph32%30.14 "Hg10 mi
12:53 PM62 °FSunny.7 mph31%30.17 "Hg10 mi
11:53 AM60 °FSunny.5 mph35%30.18 "Hg10 mi
10:53 AM58 °FSunny.8 mph36%30.19 "Hg10 mi
9:53 AM55 °FSunny.12 mph47%30.19 "Hg10 mi
8:53 AM50 °FSunny.10 mph59%30.20 "Hg10 mi
7:53 AM44 °FSunny.8 mph71%30.19 "Hg10 mi
6:53 AM37 °FClear.7 mph82%30.18 "Hg10 mi
5:53 AM34 °FClear.8 mph82%30.16 "Hg10 mi
4:53 AM35 °FClear.9 mph82%30.15 "Hg10 mi
3:53 AM34 °FClear.9 mph85%30.15 "Hg10 mi
Weather by CustomWeather, © 2016

See weather overviewHow to use our weather pages